This is the latest recevied weather packets stored in our database for station/object KC1HBM. If no packets are shown the sender has not sent any weather packets the latest 10 day(s).
| Time | Temp. | Humidity | Pressure | Rain* | Wind** | Luminosity | Snow |
|---|---|---|---|---|---|---|---|
| 1777986851 | 15.56° C | 74% | 1006.5 hPa | 0 mm | - | 416 W/m² | - |
| 1777986549 | 15° C | 75% | 1006.6 hPa | 0 mm | - | 419 W/m² | - |
| 1777986247 | 15° C | 75% | 1006.7 hPa | 0 mm | - | 422 W/m² | - |
| 1777985944 | 15° C | 75% | 1006.3 hPa | 0 mm | - | 386 W/m² | - |
| 1777985642 | 15.56° C | 74% | 1006 hPa | 0 mm | - | 371 W/m² | - |
| 1777985338 | 15.56° C | 74% | 1006 hPa | 0 mm | - | 355 W/m² | - |
| 1777985035 | 15° C | 74% | 1006.1 hPa | 0 mm | - | 349 W/m² | - |
| 1777984731 | 13.89° C | 76% | 1005.8 hPa | 0 mm | - | 334 W/m² | - |
| 1777984427 | 14.44° C | 76% | 1005.9 hPa | 0 mm | - | 320 W/m² | - |
| 1777984123 | 13.89° C | 77% | 1006 hPa | 0 mm | - | 301 W/m² | - |
| 1777983821 | 13.33° C | 78% | 1006.1 hPa | 0 mm | - | 292 W/m² | - |
| 1777983518 | 14.44° C | 77% | 1006.1 hPa | 0 mm | - | 278 W/m² | - |
| 1777983215 | 14.44° C | 76% | 1006.1 hPa | 0 mm | - | 263 W/m² | - |
| 1777982911 | 13.33° C | 80% | 1006.1 hPa | 0 mm | - | 253 W/m² | - |
| 1777982607 | 12.78° C | 81% | 1006.3 hPa | 0 mm | - | 235 W/m² | - |
| 1777982306 | 13.33° C | 79% | 1006.5 hPa | 0 mm | - | 198 W/m² | - |
| 1777982003 | 13.33° C | 80% | 1006.6 hPa | 0 mm | - | 195 W/m² | - |
| 1777981701 | 12.78° C | 80% | 1006.4 hPa | 0 mm | - | 189 W/m² | - |
| 1777981397 | 12.78° C | 82% | 1006.6 hPa | 0 mm | - | 174 W/m² | - |
| 1777981093 | 12.22° C | 83% | 1006.6 hPa | 0 mm | - | 153 W/m² | - |
| 1777980790 | 11.67° C | 85% | 1006.7 hPa | 0 mm | - | 141 W/m² | - |
| 1777980486 | 11.67° C | 84% | 1006.8 hPa | 0 mm | - | 129 W/m² | - |
| 1777980184 | 11.67° C | 84% | 1006.5 hPa | 0 mm | - | 116 W/m² | - |
| 1777979879 | 11.67° C | 83% | 1006.5 hPa | 0 mm | - | 84 W/m² | - |
| 1777979574 | 11.67° C | 84% | 1006.6 hPa | 0 mm | - | 75 W/m² | - |
* Rain latest hour (hover to see other rain measurements)
** Current wind speed in m/s (hover to see current wind gust speed)